Regional Weather Roundup
Issued by NWS

Home | Current Version | Previous Version | Graphics & Text | Print | Product List | Glossary On
Versions: 1 2 3 4 5 6 7 8 9 10 11 12 13 14 15 16 17 18 19 20 21 22 23 24 25 26 27 28 29 30 31 32 33 34 35 36 37 38 39 40 41 42 43 44 45 46 47 48 49 50
000
ASUS43 KMKX 170400
RWRWI

WISCONSIN REGIONAL WEATHER ROUNDUP
NATIONAL WEATHER SERVICE MILWAUKEE/SULLIVAN WI
1100 PM CDT WED AUG 16 2017

NOTE: "FAIR" INDICATES FEW OR NO CLOUDS BELOW 12,000 FEET WITH NO
SIGNIFICANT WEATHER AND/OR OBSTRUCTIONS TO VISIBILITY.

WIZ001-002-006>008-014>016-023>028-170500-
NORTHWEST WISCONSIN

CITY           SKY/WX    TMP DP  RH WIND       PRES   REMARKS
SUPERIOR ARPT    N/A     63  60  92 NE15G21   29.79F
ASHLAND        CLOUDY    66  62  87 NE7       29.80F
HAYWARD        LGT RAIN  69  62  78 E9        29.77F
SIREN          RAIN      67  65  93 E6        29.73F
CUMBERLAND     RAIN      64  63  94 E14G23    29.72F
RICE LAKE      RAIN      67  65  93 E13G18    29.73F
CHETEK         RAIN      67  66  97 E13G24    29.72F
LADYSMITH      LGT RAIN  68  63  83 E12G17    29.79F
EAU CLAIRE     HVY RAIN  69  67  93 E20G32    29.66F FOG
MENOMONIE      HVY RAIN  68  68  99 E17G30    29.66F
NEW RICHMOND   LGT RAIN  67  67  98 E17       29.66F
OSCEOLA        RAIN      68  68 100 E17       29.67F
$$

WIZ003>005-009-010-017-018-170500-
NORTH CENTRAL WISCONSIN

CITY           SKY/WX    TMP DP  RH WIND       PRES   REMARKS
MANITOWISH WTR CLOUDY    65  59  80 E7        29.86F
ARBOR VITAE    CLOUDY    66  59  77 SE7       29.86F
WOODRUFF       CLOUDY    66  59  77 SE7       29.86F
RHINELANDER    MOCLDY    64  61  90 E10       29.87F
EAGLE RIVER    CLOUDY    64  55  72 E7        29.88F
LAND O LAKES   CLOUDY    64  55  73 SE7       29.90F
PHILLIPS       LGT RAIN  65  61  86 E6        29.82F
TOMAHAWK         N/A     65  58  79 E6        29.85F
MEDFORD        LGT RAIN  65  62  90 E8G16     29.81F
MERRILL        CLOUDY    66  63  88 SE8       29.85F
$$

WIZ029-030-035-036-043>047-170500-
CENTRAL WISCONSIN

CITY           SKY/WX    TMP DP  RH WIND       PRES   REMARKS
WAUSAU         CLOUDY    66  61  84 E14       29.81F
MOSINEE        CLOUDY    64  63  94 E10       29.84F
MARSHFIELD     RAIN      67  63  87 E10G21    29.78F FOG
STEVENS POINT  LGT RAIN  65  64  96 E8        29.83F
WAUPACA        DRIZZLE   69  66  92 E7        29.84F
WAUTOMA        HVY RAIN  66  65  96 E7        29.80F FOG
WISC RAPIDS    RAIN      67  65  93 E10       29.80F FOG
CAMP DOUGLAS   CLOUDY    70  70 100 E9        29.76F
$$

WIZ011>013-019>022-031-037>040-048>050-170500-
NORTHEAST WISCONSIN

CITY           SKY/WX    TMP DP  RH WIND       PRES   REMARKS
ANTIGO         CLOUDY    64  60  88 E10       29.87F
SHAWANO        CLOUDY    68  63  84 E8        29.85F
OCONTO         CLOUDY    68  64  85 E5        29.86F
STURGEON BAY   CLOUDY    68  65  90 E8        29.87F
GREEN BAY      CLOUDY    68  65  90 E6        29.85F
MANITOWOC      NOT AVBL
APPLETON       LGT RAIN  66  61  82 E7        29.83F
CLINTONVILLE   LGT RAIN  64  63  94 E6        29.84F
OSHKOSH        HVY RAIN  68  65  90 E12       29.81F FOG
$$

WIZ032>034-041-042-053>061-170500-
SOUTHWEST WISCONSIN

CITY           SKY/WX    TMP DP  RH WIND       PRES   REMARKS
LA CROSSE      CLOUDY    77  73  87 SE9       29.66F
SPARTA         RAIN      69  68  96 SE8       29.73F
VIROQUA        CLOUDY    72  72 100 SE7       29.74F
BOSCOBEL       CLOUDY    76  72  87 CALM      29.72F
PRAIRIE DU CHI MOCLDY    75  71  88 SE6       29.71F
PLATTEVILLE    PTCLDY    74  74 100 S9        29.76F
$$

WIZ056-057-062-063-064-067-068-170500-
SOUTH CENTRAL WISCONSIN

CITY           SKY/WX    TMP DP  RH WIND       PRES   REMARKS
REEDSBURG      LGT RAIN  71  71 100 SE6       29.76F
BARABOO/DELLS  CLOUDY    70  68  93 SE10      29.78F
LONE ROCK      NOT AVBL
MINERAL POINT  CLOUDY    73  73 100 SE8       29.77F FOG
MADISON        LGT RAIN  72  71  97 E5        29.78F
MIDDLETON      CLOUDY    73  73 100 E3        29.79F
WATERTOWN      HVY RAIN  70  70 100 SE7       29.82F
MONROE         CLOUDY    73  72  94 S9        29.79F
JANESVILLE     CLOUDY    73  73 100 S10       29.79F
$$

WIZ051-052-058>065-066-070>072-170500-
SOUTHEAST WISCONSIN

CITY           SKY/WX    TMP DP  RH WIND       PRES   REMARKS
MILWAUKEE      CLOUDY    73  71  93 SE7       29.82F
WAUKESHA       RAIN      68  68 100 E7        29.84
MILWAUKEE/TIMM LGT RAIN  70  66  88 E7        29.84F
RACINE         MOCLDY    73  72  96 SE5       29.84F
KENOSHA        CLOUDY    76  72  87 SE10      29.83F
FOND DU LAC    LGT RAIN  68  65  90 SE8       29.82F
SHEBOYGAN      HVY RAIN  68  68 100 NE6       29.86F FOG
WEST BEND      RAIN      66  66 100 NE3       29.85F
JUNEAU         RAIN      68  67  97 E9        29.83F
$$

LSZ147-162-170500-
LAKE SUPERIOR

STATION/POSITION TIME  TEMP    WIND        PRES    WAVE
                       AIR SEA DIR/SP/G            HT/PER
                 (UTC) (F)     (DEG/KT/KT) (MB)    (FT/S)
W MID LAKE BUOY  0250   62 60   70/ 14/ 16 1011.4F   2/ 4
DEVILS ISLAND    0300   63      70/ 20/ 22 1010.7S
SAXON HARBOR     0340   65      CALM  /  3 1009.1F
$$

LMZ867-665-643>646-170500-
LAKE MICHIGAN

STATION/POSITION TIME  TEMP    WIND        PRES    WAVE
                       AIR SEA DIR/SP/G            HT/PER
                 (UTC) (F)     (DEG/KT/KT) (MB)    (FT/S)
S GREEN BAY BUOY 0330   69 72  100/ 14/ 16 1011.2F
N MID LAKE BUOY  0250   69 68  100/  6/  8 1013.6F   1/ 4
NORTHPORT PIER   0340   69      90/  7/  8 1012.2F
KEWAUNEE LAKESHO 0330   69      60/  2/  5 1010.9F
SHEBOYGAN LAKESH 0300   70      40/  4/  5 1011.4F
PORT WASHINGTON  0330   72     100/  7/ 10 1011.5F
ATWATER BUOY     0209   72 72  120/  6/  6 1012.0F
MILWAUKEE LAKESH 0300   72     120/  9/ 10   N/A
S MID LAKE BUOY  0250   76 73  100/ 12/ 14 1011.3F   1
KENOSHA   LAKESH 0300   73     170/  2/  4 1010.8
$$

TC  - TEMPERATURE IN CELSIUS
VSB - VISIBILITY IN STATUTE MILES
WCI - WIND CHILL INDEX
HX  - HEAT INDEX





USA.gov is the U.S. government's official web portal to all federal, state and local government web resources and services.